Regional Weather Roundup
Issued by NWS

Home | Current Version | Previous Version | Graphics & Text | Print | Product List | Glossary On
Versions: 1 2 3 4 5 6 7 8 9 10 11 12 13 14 15 16 17 18 19 20 21 22 23 24 25 26 27 28 29 30 31 32 33 34 35 36 37 38 39 40 41 42 43 44 45 46 47 48 49 50
000
ASUS43 KOAX 230602
RWRNE

WEATHER ROUNDUP FOR NEBRASKA
NATIONAL WEATHER SERVICE OMAHA NE
100 AM CDT SAT SEP 23 2017

NOTES: SATELLITE DATA IS BEING USED TO AUGMENT CLOUD COVER ABOVE
       12000 FEET.
       "FAIR" INDICATES FEW OR NO CLOUDS BELOW 12,000 FEET WITH NO
       SIGNIFICANT WEATHER AND/OR OBSTRUCTIONS TO VISIBILITY.


NEZ001>004-019>022-054>056-230700-
NEBRASKA PANHANDLE

CITY           SKY/WX    TMP DP  RH WIND       PRES   REMARKS
SCOTTSBLUFF    CLOUDY    50  38  63 NE8       29.97R
6HR MIN TEMP:  50; 6HR MAX TEMP:  69; 6HR PCP:  0.01;

ALLIANCE       CLOUDY    47  39  74 NE9       29.96R
6HR MIN TEMP:  47; 6HR MAX TEMP:  64;

CHADRON        CLEAR     48  38  68 NE9       29.96F
6HR MIN TEMP:  48; 6HR MAX TEMP:  62; 6HR PCP: TRACE;

GORDON         FAIR      46  39  77 N9        29.97R
6HR MIN TEMP:  46; 6HR MAX TEMP:  62;

KIMBALL        CLOUDY    52  42  70 NE10      30.00R
SIDNEY         PTCLDY    51  43  74 NE18      29.94R
6HR MIN TEMP:  51; 6HR MAX TEMP:  69; 6HR PCP: TRACE;

$$

NEZ057>060-069>072-079>082-230700-
SOUTHWEST NEBRASKA

CITY           SKY/WX    TMP DP  RH WIND       PRES   REMARKS
NORTH PLATTE   PTCLDY    58  51  78 N9        29.88R
6HR MIN TEMP:  58; 6HR MAX TEMP:  89;

IMPERIAL       PTCLDY    62  50  64 N7        29.83R
6HR MIN TEMP:  62; 6HR MAX TEMP:  88;

LEXINGTON      PTCLDY    77  61  57 S16       29.81R
MCCOOK         PTCLDY    79  63  57 S20G35    29.79R
6HR MIN TEMP:  79; 6HR MAX TEMP:  92;

OGALLALA       PTCLDY    55  50  82 NE9G20    29.89R
$$

NEZ005>010-023>029-035>040-094-230700-
NORTH CENTRAL NEBRASKA

CITY           SKY/WX    TMP DP  RH WIND       PRES   REMARKS
VALENTINE      CLOUDY    53  45  74 NW14G20   30.01R
6HR MIN TEMP:  53; 6HR MAX TEMP:  67; 6HR PCP:  0.02;

AINSWORTH      PTCLDY    52  50  93 N9        29.94R
BROKEN BOW     CLOUDY    62  53  72 N20G26    29.85R
6HR MIN TEMP:  62; 6HR MAX TEMP:  90;

O`NEILL        CLOUDY    58  56  91 N10G16    29.90S
ORD            PTCLDY    64  55  72 NW7       29.85R
6HR MIN TEMP:  64; 6HR MAX TEMP:  89;

THEDFORD       CLOUDY    53  48  83 N10G18    29.96R THUNDER
$$

NEZ041-046>049-061>064-073>077-083>087-230700-
SOUTH CENTRAL NEBRASKA

CITY           SKY/WX    TMP DP  RH WIND       PRES   REMARKS
GRAND ISLAND   CLEAR     77  65  66 S17       29.84S
6HR MIN TEMP:  77; 6HR MAX TEMP:  87;

AURORA         CLEAR     76  65  68 S14G23    29.85S
HASTINGS       CLEAR     78  62  57 S14       29.86S
6HR MIN TEMP:  78; 6HR MAX TEMP:  90;

HEBRON         PTCLDY    78  67  69 S8G18     29.88S
HOLDREGE       PTCLDY    77  61  58 S22G29    29.83S
KEARNEY        PTCLDY    77  64  64 S20G26    29.83S
YORK           CLEAR     75  66  73 S12       29.86S
$$

NEZ011>018-030>034-042>045-230700-
NORTHEAST NEBRASKA

CITY           SKY/WX    TMP DP  RH WIND       PRES   REMARKS
NORFOLK        CLOUDY    77  66  68 S15       29.83S
6HR MIN TEMP:  77; 6HR MAX TEMP:  87;

ALBION         PTCLDY    77  66  69 S8        29.84R
BLAIR          CLEAR     78  68  71 S17G24    29.87F
COLUMBUS       CLEAR     77  66  68 S10       29.86R
FREMONT        CLEAR     77  66  69 SE8       29.87R
TEKAMAH        CLEAR     77  67  71 S12       29.85S
6HR MIN TEMP:  77; 6HR MAX TEMP:  86;

WAYNE          MOCLDY    76  70  84 S13       29.84R
$$

NEZ050>053-065>068-078-088>093-230700-
SOUTHEAST NEBRASKA

CITY           SKY/WX    TMP DP  RH WIND       PRES   REMARKS
LINCOLN        CLEAR     77  67  71 S17       29.86F
6HR MIN TEMP:  77; 6HR MAX TEMP:  89;

OMAHA EPPLEY   CLEAR     79  68  69 S23       29.86F
6HR MIN TEMP:  79; 6HR MAX TEMP:  89;

BEATRICE       CLEAR     78  68  72 S14       29.88F
FALLS CITY     CLEAR     73  68  84 S6        29.92S
6HR MIN TEMP:  73; 6HR MAX TEMP:  86;

NEBRASKA CITY  CLEAR     74  71  89 S10       29.91F
PLATTSMOUTH    CLEAR     76  69  79 S10       29.90F
$$

NEZ044-045-051>053-067-230700-
OMAHA AREA

CITY           SKY/WX    TMP DP  RH WIND       PRES   REMARKS
OMAHA EPPLEY   CLEAR     79  68  69 S23       29.86F
6HR MIN TEMP:  79; 6HR MAX TEMP:  89;

BLAIR          CLEAR     78  68  71 S17G24    29.87F
FREMONT        CLEAR     77  66  69 SE8       29.87R
MILLARD        CLEAR     80  69  71 SE13G23   29.87F
OFFUTT AFB     CLEAR     77  68  73 SE14      29.88F
PLATTSMOUTH    CLEAR     76  69  79 S10       29.90F
WAHOO          FAIR      76  67  74 S10       29.86R
$$



USA.gov is the U.S. government's official web portal to all federal, state and local government web resources and services.